When you browse on this site, cookies collect data to enhance your experience and personalize the content and advertising you see.
Visit our Privacy Policy to learn more. By continuing to use the site, you agree to this use of cookies and data.
  • In Netherlands
  • List of Countries
  • For 7 days
  • Water Temperature
  • Satellite Maps
  • Weather Map
  • Weather Widgets
  • user-avatar
    Login

    Hourly Weather Brasília

    Today, 19 July, Friday

    Time Temperature Precipitation Wind Pressure Humidity
    00:00 +17°C° 0 mm 3 mps 669 mmHg 65%
    01:00 +17°C° 0 mm 3 mps 669 mmHg 66%
    02:00 +16°C° 0 mm 3 mps 668 mmHg 67%
    03:00 +15°C° 0 mm 4 mps 668 mmHg 68%
    04:00 +14°C° 0 mm 4 mps 668 mmHg 73%
    05:00 +13°C° 0 mm 4 mps 668 mmHg 77%
    06:00 +12°C° 0 mm 4 mps 668 mmHg 81%
    07:00 +13°C° 0 mm 4 mps 669 mmHg 76%
    08:00 +14°C° 0 mm 5 mps 670 mmHg 71%
    09:00 +16°C° 0 mm 5 mps 671 mmHg 66%
    10:00 +17°C° 0 mm 5 mps 671 mmHg 59%
    11:00 +20°C° 0 mm 5 mps 671 mmHg 53%
    12:00 +22°C° 0 mm 4 mps 671 mmHg 46%
    13:00 +23°C° 0 mm 4 mps 671 mmHg 43%
    14:00 +23°C° 0 mm 4 mps 670 mmHg 40%
    15:00 +25°C° 0 mm 4 mps 670 mmHg 37%
    16:00 +22°C° 0 mm 3 mps 669 mmHg 41%
    17:00 +21°C° 0 mm 3 mps 669 mmHg 44%
    18:00 +19°C° 0 mm 2 mps 668 mmHg 48%
    19:00 +18°C° 0 mm 2 mps 669 mmHg 51%
    20:00 +17°C° 0 mm 2 mps 669 mmHg 54%
    21:00 +16°C° 0 mm 2 mps 669 mmHg 58%
    22:00 +15°C° 0 mm 2 mps 669 mmHg 57%
    23:00 +14°C° 0 mm 2 mps 669 mmHg 57%

    Tomorrow, 20 July, Saturday

    Time Temperature Precipitation Wind Pressure Humidity
    00:00 +14°C° 0 mm 2 mps 668 mmHg 56%
    01:00 +13°C° 0 mm 3 mps 668 mmHg 59%
    02:00 +12°C° 0 mm 3 mps 668 mmHg 62%
    03:00 +12°C° 0 mm 4 mps 668 mmHg 65%
    04:00 +11°C° 0 mm 4 mps 668 mmHg 70%
    05:00 +11°C° 0 mm 4 mps 668 mmHg 76%
    06:00 +11°C° 0 mm 4 mps 668 mmHg 81%
    07:00 +12°C° 0 mm 5 mps 668 mmHg 77%
    08:00 +13°C° 0 mm 5 mps 669 mmHg 73%
    09:00 +15°C° 0 mm 6 mps 670 mmHg 69%
    10:00 +16°C° 0 mm 6 mps 670 mmHg 62%
    11:00 +19°C° 0 mm 5 mps 670 mmHg 56%
    12:00 +21°C° 0 mm 5 mps 670 mmHg 49%
    13:00 +22°C° 0 mm 5 mps 669 mmHg 46%
    14:00 +23°C° 0 mm 4 mps 669 mmHg 43%
    15:00 +25°C° 0 mm 4 mps 669 mmHg 39%
    16:00 +22°C° 0 mm 3 mps 668 mmHg 43%
    17:00 +20°C° 0 mm 3 mps 668 mmHg 47%
    18:00 +19°C° 0 mm 2 mps 667 mmHg 50%
    19:00 +18°C° 0 mm 3 mps 668 mmHg 52%
    20:00 +17°C° 0 mm 3 mps 668 mmHg 54%
    21:00 +16°C° 0 mm 3 mps 668 mmHg 55%
    22:00 +14°C° 0 mm 3 mps 668 mmHg 56%
    23:00 +14°C° 0 mm 3 mps 668 mmHg 56%

    Day after tomorrow, 21 July, Sunday

    Time Temperature Precipitation Wind Pressure Humidity
    00:00 +14°C° 0 mm 3 mps 668 mmHg 57%
    01:00 +13°C° 0 mm 3 mps 667 mmHg 58%
    02:00 +13°C° 0 mm 3 mps 667 mmHg 59%
    03:00 +13°C° 0 mm 3 mps 667 mmHg 60%
    04:00 +12°C° 0 mm 3 mps 667 mmHg 64%
    05:00 +11°C° 0 mm 3 mps 667 mmHg 69%
    06:00 +11°C° 0 mm 3 mps 667 mmHg 73%
    07:00 +13°C° 0 mm 4 mps 668 mmHg 70%
    08:00 +14°C° 0 mm 5 mps 668 mmHg 66%
    09:00 +16°C° 0 mm 5 mps 669 mmHg 63%
    10:00 +19°C° 0 mm 5 mps 669 mmHg 57%
    11:00 +21°C° 0 mm 5 mps 670 mmHg 51%
    12:00 +23°C° 0 mm 4 mps 670 mmHg 45%
    13:00 +23°C° 0 mm 4 mps 669 mmHg 42%
    14:00 +25°C° 0 mm 4 mps 669 mmHg 40%
    15:00 +26°C° 0 mm 3 mps 668 mmHg 37%
    16:00 +24°C° 0 mm 3 mps 668 mmHg 42%
    17:00 +23°C° 0 mm 2 mps 667 mmHg 46%
    18:00 +20°C° 0 mm 2 mps 667 mmHg 50%
    19:00 +19°C° 0 mm 2 mps 667 mmHg 53%
    20:00 +18°C° 0 mm 2 mps 668 mmHg 56%
    21:00 +17°C° 0 mm 2 mps 668 mmHg 60%
    22:00 +17°C° 0 mm 2 mps 668 mmHg 62%
    23:00 +16°C° 0 mm 3 mps 668 mmHg 64%

    22 July, Monday

    Time Temperature Precipitation Wind Pressure Humidity
    00:00 +16°C° 0 mm 3 mps 668 mmHg 66%
    01:00 +14°C° 0 mm 3 mps 667 mmHg 69%
    02:00 +14°C° 0 mm 3 mps 667 mmHg 71%
    03:00 +14°C° 0 mm 3 mps 667 mmHg 73%
    04:00 +13°C° 0 mm 3 mps 667 mmHg 75%
    05:00 +13°C° 0 mm 3 mps 667 mmHg 78%
    06:00 +12°C° 0 mm 3 mps 667 mmHg 80%
    07:00 +14°C° 0 mm 4 mps 668 mmHg 74%
    08:00 +15°C° 0 mm 5 mps 668 mmHg 68%
    09:00 +17°C° 0 mm 5 mps 669 mmHg 62%
    10:00 +19°C° 0 mm 5 mps 669 mmHg 57%
    11:00 +21°C° 0 mm 4 mps 669 mmHg 51%
    12:00 +23°C° 0 mm 4 mps 670 mmHg 46%
    13:00 +25°C° 0 mm 3 mps 669 mmHg 43%
    14:00 +25°C° 0 mm 3 mps 669 mmHg 40%
    15:00 +26°C° 0 mm 2 mps 669 mmHg 37%
    16:00 +24°C° 0 mm 2 mps 668 mmHg 41%
    17:00 +23°C° 0 mm 2 mps 668 mmHg 45%
    18:00 +20°C° 0 mm 2 mps 668 mmHg 49%
    19:00 +19°C° 0 mm 2 mps 668 mmHg 52%
    20:00 +18°C° 0 mm 2 mps 668 mmHg 54%
    21:00 +17°C° 0 mm 2 mps 668 mmHg 57%
    22:00 +17°C° 0 mm 2 mps 668 mmHg 59%
    23:00 +16°C° 0 mm 2 mps 668 mmHg 61%

    23 July, Tuesday

    Time Temperature Precipitation Wind Pressure Humidity
    00:00 +16°C° 0 mm 2 mps 668 mmHg 64%
    01:00 +16°C° 0 mm 2 mps 667 mmHg 64%
    02:00 +16°C° 0 mm 2 mps 667 mmHg 65%
    03:00 +15°C° 0 mm 2 mps 667 mmHg 65%
    04:00 +14°C° 0 mm 3 mps 667 mmHg 68%
    05:00 +13°C° 0 mm 3 mps 667 mmHg 72%
    06:00 +12°C° 0 mm 3 mps 667 mmHg 75%
    07:00 +14°C° 0 mm 4 mps 668 mmHg 70%
    08:00 +15°C° 0 mm 4 mps 669 mmHg 65%
    09:00 +17°C° 0 mm 5 mps 669 mmHg 60%
    10:00 +20°C° 0 mm 4 mps 670 mmHg 55%
    11:00 +22°C° 0 mm 4 mps 670 mmHg 49%
    12:00 +25°C° 0 mm 4 mps 670 mmHg 43%
    13:00 +25°C° 0 mm 4 mps 669 mmHg 41%
    14:00 +26°C° 0 mm 3 mps 669 mmHg 38%
    15:00 +27°C° 0 mm 3 mps 668 mmHg 36%
    16:00 +25°C° 0 mm 3 mps 668 mmHg 40%
    17:00 +23°C° 0 mm 2 mps 667 mmHg 43%
    18:00 +21°C° 0 mm 2 mps 667 mmHg 46%
    19:00 +20°C° 0 mm 2 mps 667 mmHg 50%
    20:00 +18°C° 0 mm 2 mps 667 mmHg 53%
    21:00 +17°C° 0 mm 2 mps 667 mmHg 57%
    22:00 +17°C° 0 mm 2 mps 667 mmHg 59%
    23:00 +16°C° 0 mm 2 mps 667 mmHg 61%

    24 July, Wednesday

    Time Temperature Precipitation Wind Pressure Humidity
    00:00 +16°C° 0 mm 2 mps 667 mmHg 63%
    01:00 +16°C° 0 mm 2 mps 667 mmHg 66%
    02:00 +15°C° 0 mm 2 mps 667 mmHg 68%
    03:00 +15°C° 0 mm 2 mps 667 mmHg 71%
    04:00 +14°C° 0 mm 2 mps 667 mmHg 74%
    05:00 +14°C° 0 mm 2 mps 667 mmHg 76%
    06:00 +14°C° 0 mm 2 mps 667 mmHg 79%
    07:00 +14°C° 0 mm 3 mps 667 mmHg 73%
    08:00 +17°C° 0 mm 4 mps 668 mmHg 68%
    09:00 +19°C° 0 mm 4 mps 669 mmHg 62%
    10:00 +21°C° 0 mm 4 mps 669 mmHg 56%
    11:00 +22°C° 0 mm 4 mps 669 mmHg 50%
    12:00 +25°C° 0 mm 4 mps 669 mmHg 43%
    13:00 +26°C° 0 mm 4 mps 668 mmHg 41%
    14:00 +27°C° 0 mm 3 mps 668 mmHg 38%
    15:00 +27°C° 0 mm 3 mps 667 mmHg 35%
    16:00 +26°C° 0 mm 2 mps 667 mmHg 39%
    17:00 +24°C° 0 mm 2 mps 667 mmHg 42%
    18:00 +21°C° 0 mm 2 mps 667 mmHg 46%
    19:00 +20°C° 0 mm 2 mps 667 mmHg 49%
    20:00 +19°C° 0 mm 2 mps 667 mmHg 52%
    21:00 +18°C° 0 mm 2 mps 667 mmHg 54%
    22:00 +18°C° 0 mm 2 mps 667 mmHg 55%
    23:00 +17°C° 0 mm 2 mps 667 mmHg 55%
    Show more